This demonstration page uses our WeatherBlox Daily Observations layout. Learn more.

Left ArrowRight Arrow

Hourly Observations for March 9, 2021

Temp ( °F °C ) Dew Point ( °F °C ) Humidity (%) Winds ( mph kmh ) Pressure ( in mb ) Visibility ( mi km ) Precip ( " mm )
12:15 am 00:15 Clear 53 11.7 43 6 68 68 S 14 22 29.87 1011 10 16 N/A
12:35 am 00:35 Clear 53 11.6 43 6.1 69 69 S 15 24 29.86 1011 10 16 N/A
12:55 am 00:55 Clear 52 11.2 43 6.2 72 72 S 15 24 29.85 1011 10 16 N/A
1:15 am 01:15 Clear 52 11 43 6.2 73 73 S 15 24 29.85 1011 10 16 N/A
1:35 am 01:35 Clear 51 10.6 43 6.2 74 74 S 15 24 29.85 1011 10 16 N/A
1:55 am 01:55 Clear 51 10.5 43 6.3 75 75 S 14 22 29.85 1011 10 16 N/A
2:15 am 02:15 Clear 50 10.1 43 6.3 77 77 S 14 22 29.85 1011 10 16 N/A
2:35 am 02:35 Clear 50 10 43 6.3 78 78 S 13 20 29.84 1011 10 16 N/A
2:55 am 02:55 Clear 50 9.8 43 6.3 79 79 S 12 19 29.83 1010 10 16 N/A
3:15 am 03:15 Clear 49 9.4 43 6.1 80 80 S 13 20 29.83 1010 10 16 N/A
3:35 am 03:35 Clear 48 9.1 43 6.1 82 82 S 14 22 29.83 1010 10 16 N/A
3:55 am 03:55 Clear 48 9.1 43 6 81 81 S 10 17 29.83 1010 10 16 N/A
4:15 am 04:15 Clear 48 8.7 43 6 83 83 S 14 22 29.81 1010 10 16 N/A
4:35 am 04:35 Clear 47 8.6 43 6 84 84 S 14 22 29.82 1010 10 16 N/A
4:55 am 04:55 Clear 47 8.3 43 5.9 85 85 SSE 3 6 29.84 1010 10 16 N/A
5:15 am 05:15 Clear 46 7.6 42 5.5 87 87 S 8 13 29.83 1010 10 16 N/A
5:35 am 05:35 Clear 44 6.9 41 5.1 88 88 S 3 6 29.84 1011 10 16 N/A
5:55 am 05:55 Clear 44 6.8 41 5 88 88 SSE 9 15 29.84 1011 10 16 N/A
6:15 am 06:15 Clear 43 6 40 4.6 91 91 S 6 9 29.85 1011 10 16 N/A
6:35 am 06:35 Clear 42 5.7 40 4.5 92 92 N N/A 29.86 1011 10 16 N/A
6:55 am 06:55 Clear 42 5.3 40 4.2 93 93 S 9 15 29.86 1011 10 16 N/A
7:15 am 07:15 Sunny 42 5.5 40 4.5 93 93 S 6 9 29.86 1011 10 16 N/A
7:35 am 07:35 Sunny 42 5.5 40 4.6 94 94 S 3 6 29.87 1012 10 16 N/A
7:55 am 07:55 Sunny 43 6.2 41 5.1 93 93 S 5 7 29.87 1011 10 16 N/A
8:15 am 08:15 Sunny 45 7.1 42 5.6 90 90 SSW 6 9 29.86 1011 10 16 N/A
8:35 am 08:35 Sunny 47 8.4 43 6 85 85 SSW 7 11 29.84 1010 10 16 N/A
8:55 am 08:55 Sunny 50 9.9 43 6 77 77 SSW 6 9 29.82 1010 10 16 N/A
9:15 am 09:15 Sunny 53 11.5 43 6.3 71 71 SW 6 9 29.80 1009 10 16 N/A
9:35 am 09:35 Sunny 55 13 43 6.2 64 64 SW 6 9 29.79 1009 10 16 N/A
9:55 am 09:55 Sunny 57 13.8 44 6.5 62 62 SSW 7 11 29.77 1008 10 16 N/A
10:15 am 10:15 Sunny 58 14.5 44 6.5 59 59 SSW 9 15 29.77 1008 10 16 N/A
10:35 am 10:35 Sunny 59 15.2 43 6 54 54 SSW 8 13 29.76 1008 10 16 N/A
10:55 am 10:55 Sunny 61 15.9 42 5.5 50 50 SW 6 9 29.76 1008 10 16 N/A
11:15 am 11:15 Sunny 62 16.8 41 5.2 47 47 SW 5 7 29.74 1007 10 16 N/A
11:35 am 11:35 Sunny 63 17.4 41 4.8 44 44 SSW 8 13 29.75 1007 10 16 N/A
11:55 am 11:55 Sunny 65 18.6 41 5 41 41 SW 7 11 29.74 1007 10 16 N/A
12:15 pm 12:15 Sunny 67 19.3 40 4.2 37 37 SW 6 9 29.72 1007 10 16 N/A
12:35 pm 12:35 Sunny 68 20 39 4.1 35 35 SSW 9 15 29.72 1006 10 16 N/A
12:55 pm 12:55 Sunny 69 20.6 39 4 34 34 S 7 11 29.70 1006 10 16 N/A
1:15 pm 13:15 Sunny 70 21 39 4 33 33 S 7 11 29.68 1005 10 16 N/A
1:35 pm 13:35 Sunny 71 21.7 39 3.8 31 31 S 6 9 29.66 1005 10 16 N/A
1:55 pm 13:55 Sunny 74 23.3 38 3.4 27 27 S 7 11 29.64 1004 10 16 N/A
2:15 pm 14:15 Sunny 75 24 37 2.9 25 25 SSE 9 15 29.63 1003 10 16 N/A
2:35 pm 14:35 Sunny 75 24 35 1.5 23 23 SSE 9 15 29.61 1003 10 16 N/A
2:55 pm 14:55 Sunny 75 23.9 37 2.9 25 25 SSE 10 17 29.60 1002 10 16 N/A
3:15 pm 15:15 Sunny 76 24.5 39 3.7 26 26 S 12 19 29.59 1002 10 16 N/A
3:35 pm 15:35 Sunny 76 24.3 39 4.1 27 27 S 15 24 29.59 1002 10 16 N/A
3:55 pm 15:55 Sunny 75 23.9 40 4.6 29 29 SSE 16 26 29.59 1002 10 16 N/A
4:15 pm 16:15 Sunny 74 23.6 41 5.1 30 30 SSE 16 26 29.59 1002 10 16 N/A
4:35 pm 16:35 Sunny 73 22.9 42 5.7 33 33 S 14 22 29.59 1002 10 16 N/A
4:55 pm 16:55 Sunny 72 22 42 5.8 35 35 S 13 20 29.60 1002 10 16 N/A
5:15 pm 17:15 Sunny 71 21.6 43 6.1 37 37 SSE 10 17 29.61 1003 10 16 N/A
5:35 pm 17:35 Sunny 70 21.3 43 6.1 37 37 SSE 10 17 29.60 1002 10 16 N/A
5:55 pm 17:55 Sunny 69 20.8 43 6.1 39 39 SSE 6 9 29.60 1002 10 16 N/A
6:15 pm 18:15 Sunny 67 19.7 43 6.3 42 42 SSE 7 11 29.61 1003 10 16 N/A
6:35 pm 18:35 Sunny 64 17.8 43 6.3 47 47 SE 8 13 29.63 1003 10 16 N/A
6:55 pm 18:55 Clear 63 17.4 44 6.8 50 50 ESE 10 17 29.63 1003 10 16 N/A
7:15 pm 19:15 Clear 63 17 46 7.8 55 55 SE 10 17 29.63 1003 10 16 N/A
7:35 pm 19:35 Clear 62 16.9 48 9 60 60 SE 10 17 29.63 1004 10 16 N/A
7:55 pm 19:55 Clear 61 16.2 48 8.8 62 62 SSE 10 17 29.64 1004 10 16 N/A
8:15 pm 20:15 Clear 62 16.4 49 9.2 63 63 SSE 10 17 29.63 1003 10 16 N/A
8:35 pm 20:35 Clear 60 15.8 49 9.5 66 66 SE 13 20 29.63 1003 10 16 N/A
8:55 pm 20:55 Clear 60 15.3 49 9.6 69 69 SE 14 22 29.63 1003 10 16 N/A
9:15 pm 21:15 Clear 59 15 49 9.6 70 70 SE 10 17 29.63 1003 10 16 N/A
9:35 pm 21:35 Clear 58 14.7 50 9.8 73 73 SE 12 19 29.62 1003 10 16 N/A
9:55 pm 21:55 Clear 58 14.6 50 9.9 74 74 SE 13 20 29.60 1002 10 16 N/A
10:15 pm 22:15 Clear 58 14.2 49 9.7 75 75 SE 12 19 29.59 1002 10 16 N/A
10:35 pm 22:35 Clear 57 14.1 50 10 77 77 SE 13 20 29.59 1002 10 16 N/A
10:55 pm 22:55 Clear 58 14.3 50 10 76 76 SE 12 19 29.58 1002 10 16 N/A
11:15 pm 23:15 Clear 55 13 49 9.5 79 79 NE 8 13 29.61 1003 10 16 N/A
11:35 pm 23:35 Clear 58 14.6 50 10 74 74 NE 9 15 29.59 1002 10 16 N/A
11:55 pm 23:55 Clear 58 14.5 50 10 75 75 ENE 9 15 29.59 1002 10 16 N/A

Powered by AerisWeather